EW5186 Weather Reports


time (UTC)temp
F
wind
direction
speed
knots
gust
knots
rain 1hr
in
rain 24hr
in
rain mn
in
humidity
%
barometer
mb
20260504194523 69 50 0.0 8.7 0.00 0.00 0.00 44 1011.0
20260504193020 69 172 2.6 8.7 0.00 0.00 0.00 46 1011.1
20260504191518 68 328 1.7 11.3 0.00 0.00 0.00 44 1011.1
20260504190019 69 293 1.7 9.6 0.00 0.00 0.00 48 1011.3
20260504184523 68 176 0.9 12.2 0.00 0.00 0.00 43 1011.2
20260504181501 68 223 3.5 11.3 0.00 0.00 0.00 39 1011.5
20260504180100 68 327 2.6 10.4 0.00 0.00 0.00 41 1011.6
20260504174558 69 236 3.5 10.4 0.00 0.00 0.00 40 1011.7
20260504173059 68 116 0.9 9.6 0.00 0.00 0.00 43 1012.1
20260504171556 68 307 3.5 10.4 0.00 0.00 0.00 42 1012.0
20260504081541 38 109 0.0 0.0 0.00 0.00 0.00 78 1013.9
20260504050015 38 107 0.0 0.0 0.00 0.00 0.00 76 1013.4
20260504044512 38 107 0.0 0.0 0.00 0.00 0.00 76 1013.5
20260504043057 38 185 0.0 0.0 0.00 0.00 0.00 74 1013.4
20260504041551 39 185 0.0 0.0 0.00 0.00 0.00 74 1013.4
20260504040029 39 185 0.0 0.0 0.00 0.00 0.00 73 1013.3
20260504034529 39 185 0.0 0.0 0.00 0.00 0.00 74 1013.3
20260504033011 40 185 0.0 0.0 0.00 0.00 0.00 72 1013.3
20260504031510 40 185 0.0 0.0 0.00 0.00 0.00 72 1013.1
20260504030052 40 250 0.0 0.0 0.00 0.00 0.00 71 1013.0
20260504024652 40 250 0.0 0.0 0.00 0.00 0.00 72 1013.1
20260504023034 41 250 0.0 0.0 0.00 0.00 0.00 71 1013.1
20260504021531 41 251 0.0 0.0 0.00 0.00 0.00 69 1013.1
20260504020013 41 251 0.0 0.0 0.00 0.00 0.00 68 1013.1
20260504014518 42 251 0.0 0.0 0.00 0.00 0.00 65 1012.9
20260504013110 43 251 0.0 0.0 0.00 0.00 0.00 65 1012.7
20260504011552 43 251 0.0 0.0 0.00 0.00 0.00 64 1012.6
20260504010037 43 251 0.0 0.0 0.00 0.00 0.00 65 1012.5
20260504004543 44 251 0.0 0.0 0.00 0.00 0.00 61 1012.2
20260504003021 44 251 0.0 0.0 0.00 0.00 0.00 60 1012.1
20260504001521 45 251 0.0 0.0 0.00 0.00 0.00 59 1011.8
20260504000020 47 251 0.0 0.0 0.00 0.00 0.00 54 1011.5
20260503234521 49 251 0.0 0.0 0.00 0.00 0.00 47 1011.3
20260503233022 51 251 0.0 0.0 0.00 0.00 0.00 45 1011.2
20260503231520 53 63 0.0 3.5 0.00 0.00 0.00 40 1011.1
20260503230017 54 350 0.0 0.0 0.00 0.00 0.00 40 1011.0
20260503224517 55 358 0.0 7.8 0.00 0.00 0.00 38 1010.9
20260503223116 56 179 0.0 7.8 0.00 0.00 0.00 39 1010.9
20260503221604 56 2 0.9 7.8 0.00 0.00 0.00 37 1010.8
20260503220059 56 245 1.7 11.3 0.00 0.00 0.00 36 1010.9
20260503214540 56 311 0.9 9.6 0.00 0.00 0.00 36 1010.8
20260503213040 56 226 2.6 8.7 0.00 0.00 0.00 38 1010.8
20260503211522 57 158 1.7 6.1 0.00 0.00 0.00 37 1010.8
20260503210020 55 278 0.9 9.6 0.00 0.00 0.00 39 1010.8
20260503204509 54 332 2.6 7.8 0.00 0.00 0.00 39 1010.7
20260503203025 56 23 3.5 11.3 0.00 0.00 0.00 38 1010.6
20260503201508 57 286 2.6 11.3 0.00 0.00 0.00 41 1010.6
20260503200008 57 243 0.9 13.0 0.00 0.00 0.00 40 1010.6